Hourly Weather Roundup
Issued by NWS Central Illinois

Home | Current Version | Previous Version | Text Only | Print | Product List | Glossary On
Versions: 1 2 3 4 5 6 7 8 9 10 11 12 13 14 15 16 17 18 19 20 21 22 23 24 25 26 27 28 29 30 31 32 33 34 35 36 37 38 39 40 41 42 43 44 45 46 47 48 49 50
000
NZUS43 KILX 181810
HWRILX

Area Weather Roundup
National Weather Service Lincoln IL
1200 PM CST SUN FEB 18 2018

NOTE:  "FAIR" indicates few or no clouds below 12,000 feet, with
       no sigificant weather and/or obstructions to visibility.


CITY           SKY/WX    TMP DP  RH WIND       PRES   REMARKS
Bloomington    FAIR      37  31  78 SE15      30.18F WCI  28
6HR MIN TEMP:  18; 6HR MAX TEMP:  37;

Champaign      FAIR      40  33  76 SE14      30.23F WCI  32
6HR MIN TEMP:  23; 6HR MAX TEMP:  40;

Danville       FAIR      37  30  74 S13       30.24F WCI  29
6HR MIN TEMP:  23; 6HR MAX TEMP:  38;

Decatur        FAIR      43  33  68 SE14      30.20F
6HR MIN TEMP:  22; 6HR MAX TEMP:  43;

Effingham      FAIR      46  35  66 E12       30.26F
6HR MIN TEMP:  26; 6HR MAX TEMP:  46;

Flora          FAIR      48  35  61 S10       30.27F
6HR MIN TEMP:  26; 6HR MAX TEMP:  48;

Galesburg      FAIR      39  32  76 SE13G21   30.10F WCI  31
6HR MIN TEMP:  21; 6HR MAX TEMP:  39;

Jacksonville   CLOUDY    44  31  58 SE17G24   30.14F
6HR MIN TEMP:  27; 6HR MAX TEMP:  44;

Lacon          FAIR      36  29  78 S12       30.16F WCI  27
6HR MIN TEMP:   6; 6HR MAX TEMP:  36;

Lawrenceville  FAIR      46  34  62 SE9       30.28F
6HR MIN TEMP:  27; 6HR MAX TEMP:  47;

Litchfield     PTSUNNY   44  32  63 SE15      30.18F
6HR MIN TEMP:  26; 6HR MAX TEMP:  44;

$$


CITY           SKY/WX    TMP DP  RH WIND       PRES   REMARKS
Lincoln        FAIR      42  35  77 S18       30.18F WCI  33
6HR MIN TEMP:  24; 6HR MAX TEMP:  42;

Macomb         CLOUDY    41  33  73 S20G26    30.12F WCI  32
6HR MIN TEMP:  27; 6HR MAX TEMP:  41;

Mattoon        FAIR      42  31  64 S13       30.22F
6HR MIN TEMP:  25; 6HR MAX TEMP:  43;

Mt Carmel AP   FAIR      46  33  59 SE9       30.27F
6HR MIN TEMP:  26; 6HR MAX TEMP:  47;

Olney-Noble AP FAIR      46  35  65 SE13      30.27F
Paris AP       FAIR      41  33  71 SE13      30.27F WCI  34
6HR MIN TEMP:  25; 6HR MAX TEMP:  41;

Peoria         FAIR      39  31  72 SE10G22   30.15F WCI  32
6HR MIN TEMP:  21; 6HR MAX TEMP:  39;

Pontiac        FAIR      34  33  96 S17       30.21F WCI  23
6HR MIN TEMP:   8; 6HR MAX TEMP:  34;

Rantoul        FAIR      39  34  81 S15       30.24F WCI  31
6HR MIN TEMP:  25; 6HR MAX TEMP:  39;

Robinson       FAIR      44  33  65 SE8       30.28F
6HR MIN TEMP:  22; 6HR MAX TEMP:  44;

Springfield    FAIR      46  34  62 S21G26    30.17F
6HR MIN TEMP:  25; 6HR MAX TEMP:  46;

Taylorville    FAIR      43  32  65 SE15G22   30.20F
6HR MIN TEMP:  25; 6HR MAX TEMP:  43;

$$

...REGIONAL REPORTS...


CITY           SKY/WX    TMP DP  RH WIND       PRES   REMARKS
Chicago O`Hare PTSUNNY   30  24  78 S15       30.21F WCI  19
Kankakee       FAIR      33  28  80 S12       30.26F WCI  25
Moline         FAIR      36  29  75 S20G26    30.07F WCI  25
Mount Sterling CLOUDY    43  32  65 SE14G20   30.10F
Mount Vernon   NOT AVBL
Pittsfield     CLOUDY    46  32  58 SE18      30.12F
Quincy         CLOUDY    45  28  51 S22G30    30.08F
Rockford       CLOUDY    28  23  81 S18G25    30.17F FOG     WCI  15
$$


CITY           SKY/WX    TMP DP  RH WIND       PRES   REMARKS
Burlington     CLOUDY    44  30  57 S16       30.06F
Cedar Rapids   FAIR      40  29  64 S21G30    29.96F WCI  30
Des Moines     CLOUDY    49  26  41 S25G38    29.86F
Kirksville     CLOUDY    48  26  42 S21G31    30.00F
Ottumwa        MOSUNNY   47  27  45 S28G37    29.96F
St Louis       PTSUNNY   48  29  47 SE20G26   30.17F
$$


CITY           SKY/WX    TMP DP  RH WIND       PRES   REMARKS
Terre Haute    FAIR      42  34  73 VRB6      30.28F
Evansville     FAIR      47  36  65 SE10G20   30.27F
Indianapolis   PTSUNNY   39  30  70 SE12      30.29F WCI  32
Lafayette      FAIR      36  31  82 S10       30.29F WCI  28
Madison        PTSUNNY   31  23  72 S21G29    30.10F WCI  18
Milwaukee      PTSUNNY   36  26  67 S9G23     30.16F WCI  29
$$





USA.gov is the U.S. government's official web portal to all federal, state and local government web resources and services.